{"data":{"norad_id":53665,"intl_designator":"2022-105T","name":"STARLINK-4334","alt_names":[],"object_type":"PAYLOAD","status":"ACTIVE","operator":null,"country":"US","launch_date":"2022-08-31","launch_site_code":"AFWTR","launch_vehicle":null,"mission":null,"orbit_class":"UNKNOWN","rcs_meters":null,"size_class":null,"mass_kg":null,"dimensions":null,"purposes":["comms"],"wikipedia_slug":null,"has_3d_model":false,"image_url":null,"decayed_at":null,"tle_current":{"epoch":"2026-09-20T22:00:03.000096Z","epoch_age_seconds":45680,"freshness":"FRESH","line1":"1 53665U 22105T   26263.91670139  .01333135  00000+0  21997-1 0  9997","line2":"2 53665  97.5160 152.5109 0000898  98.5526  81.0279 15.49267926  5775","mean_motion":15.49267926,"eccentricity":8.98e-5,"inclination_deg":97.516,"raan_deg":152.5109,"arg_perigee_deg":98.5526,"mean_anomaly_deg":81.0279,"bstar":0.021997,"rev_number":577,"period_min":92.947125273411,"perigee_km":418.25604293461,"apogee_km":419.47678474773,"semimajor_km":6797.0034138412,"source":"CELESTRAK","updated_at":"2026-09-21T09:00:32.953277Z"}}}